Regional Weather Roundup
Issued by NWS

Home | Current Version | Previous Version | Text Only | Print | Product List | Glossary On
Versions: 1 2 3 4 5 6 7 8 9 10 11 12 13 14 15 16 17 18 19 20 21 22 23 24 25 26 27 28
000
ASUS42 KKEY 231010
RWRKEY

FLORIDA REGIONAL WEATHER ROUNDUP FOR THE FLORIDA KEYS
NATIONAL WEATHER SERVICE KEY WEST FLORIDA
600 AM EDT THU OCT 23 2014

...SOUTH FLORIDA AND THE KEYS...

CITY           SKY/WX    TMP DP  RH WIND       PRES   REMARKS
FORT MYERS     CLOUDY    70  64  81 NE8       29.91R
SW REGIONAL AP CLOUDY    69  64  84 NE7       29.91S
NAPLES         CLOUDY    72  67  84 NE13      29.88S
MIAMI          CLOUDY    74  73  97 CALM      29.88F
WEST KENDALL   CLOUDY    75  73  93 NE5       29.89S
HOMESTEAD      CLOUDY    74  73  96 CALM      29.89R
MARATHON       CLOUDY    75  32  20 E10       29.85S
BOCA CHICA NAS LGT RAIN  75  72  90 E9        29.84F
KEY WEST INTL  CLOUDY    76  74  93 E12G20    29.84F

...INTERNATIONAL WEATHER...

CITY           SKY/WX    TMP DP  RH WIND       PRES   REMARKS
NASSAU BAHAMAS CLOUDY    75  72  88 CALM      29.91R
CANCUN MEXICO  MOCLDY    73  73 100 NW3       29.77R
COZUMEL MEXICO CLOUDY    73  73 100 CALM      29.75S

ADJACENT COASTAL WATERS...

STATION/POSITION TIME  SKY/WX   TEMP    WIND        PRES    WAVE
                                AIR SEA DIR/SP/G            HT/PER
                 (UTC)          (F)     (DEG/KT/KT) (MB)    (FT/S)
PULASKI SHOAL LI 0900            79      90/ 19/ 20 1010.1S
SAND KEY         0937            77        CALM     1010.0F
SOMBRERO KEY     1000            76     100/ 22/ 23 1011.2R
LONG KEY         1000            76 78  110/ 19/ 20 1011.7F
MOLASSES REEF    1000            77 83  100/ 14/ 15 1011.6R
FOWEY ROCKS      1000            78 80  110/ 11/ 14 1012.2R
Buoy 42080       NOT AVBL

$$



USA.gov is the U.S. government's official web portal to all federal, state and local government web resources and services.